contact: severine.martini@mio.osupytheas.fr, dominique.lefevre@mio.osupytheas.fr
Project:EMSO Ligure-ouest http://www.emso-fr.org/EMSO-France
Sensor Aquadopp, Serial 05974 
DOI : "https://doi.org/10.17882/97948" 
Title:EMSO Western Ligurian : Data Bathybot Aquadopp sensor - deploiement 2023-04-28
Datetime,Profondeur,Latitude,Longitude,X_East,Y_North,Z_up,Amplitude_X,Amplitude_Y,Amplitude_Z,Batterie,Sound_Speed,Heading,Pitch,Roll,Pressure,Temperature,Fluorescence,Speed,Direction
time,m,degree_north,degree_east,m.s-1,m.s-1,m.s-1,1,1,1,Volt,m.s-1,degree,degree,degree,dbar,degree_C,arbitrary units (a.u.),m.s-1,degree
2023-12-27T00:03:13,2420,42.8014,5.9826,0.597,0.038,3.703,155.0,151.0,152.0,11.8,1504.7,271.5,-0.8,0.9,2485.185,13.28,774.0,0.598,86.4
2023-12-27T00:06:13,2420,42.8014,5.9826,0.238,0.048,4.092,155.0,152.0,152.0,11.8,1504.7,271.4,-0.8,0.9,2485.645,13.28,779.0,0.242,78.6
2023-12-27T00:09:13,2420,42.8014,5.9826,0.654,0.022,3.693,155.0,151.0,152.0,11.8,1504.7,271.3,-0.8,0.9,2485.382,13.28,761.0,0.654,88.1
2023-12-27T00:12:13,2420,42.8014,5.9826,0.423,0.071,3.936,155.0,151.0,152.0,11.8,1504.7,271.4,-0.8,0.9,2485.42,13.28,765.0,0.429,80.5
2023-12-27T00:15:13,2420,42.8014,5.9826,0.253,0.063,4.079,155.0,151.0,152.0,11.8,1504.7,271.3,-0.9,0.9,2485.275,13.28,762.0,0.261,76.0
2023-12-27T00:18:13,2420,42.8014,5.9826,0.422,0.046,3.832,155.0,151.0,152.0,11.8,1504.7,271.3,-0.8,0.9,2485.464,13.28,775.0,0.425,83.8
2023-12-27T00:21:13,2420,42.8014,5.9826,0.617,0.053,3.66,155.0,151.0,152.0,11.8,1504.7,271.5,-0.8,0.9,2485.024,13.28,765.0,0.619,85.1
2023-12-27T00:24:13,2420,42.8014,5.9826,0.607,0.034,3.712,155.0,151.0,152.0,11.8,1504.7,271.3,-0.8,0.9,2485.53,13.28,778.0,0.608,86.8
2023-12-27T00:27:14,2420,42.8014,5.9826,0.455,0.061,3.85,155.0,151.0,152.0,11.8,1504.7,271.3,-0.8,0.9,2485.524,13.28,755.0,0.459,82.4
2023-12-27T00:30:14,2420,42.8014,5.9826,0.544,0.041,3.771,155.0,151.0,152.0,11.8,1504.7,271.5,-0.8,0.9,2485.213,13.28,759.0,0.545,85.7
2023-12-27T00:33:13,2420,42.8014,5.9826,0.446,0.055,3.851,155.0,151.0,152.0,11.8,1504.7,271.4,-0.8,0.9,2485.155,13.28,776.0,0.449,83.0
2023-12-27T00:36:13,2420,42.8014,5.9826,0.721,0.043,3.568,155.0,151.0,152.0,11.8,1504.7,271.4,-0.8,0.8,2485.091,13.28,787.0,0.722,86.6
2023-12-27T00:39:13,2420,42.8014,5.9826,0.585,0.033,3.738,155.0,151.0,152.0,11.8,1504.7,271.4,-0.8,0.9,2485.382,13.28,772.0,0.586,86.8
2023-12-27T00:42:13,2420,42.8014,5.9826,0.561,0.034,3.747,155.0,151.0,152.0,11.8,1504.7,271.3,-0.9,0.9,2485.281,13.28,765.0,0.562,86.5
2023-12-27T00:45:13,2420,42.8014,5.9826,0.727,0.049,3.658,155.0,152.0,152.0,11.8,1504.7,271.3,-0.8,0.9,2485.318,13.28,766.0,0.729,86.1
2023-12-27T00:48:14,2420,42.8014,5.9826,0.821,0.042,3.499,155.0,151.0,152.0,11.8,1504.7,271.3,-0.8,0.9,2485.384,13.28,757.0,0.822,87.1
2023-12-27T00:51:14,2420,42.8014,5.9826,0.714,0.025,3.675,155.0,152.0,152.0,11.8,1504.7,271.5,-0.9,0.9,2485.089,13.28,761.0,0.714,88.0
2023-12-27T00:54:14,2420,42.8014,5.9826,0.43,0.059,3.963,155.0,151.0,152.0,11.8,1504.7,271.6,-0.8,0.9,2485.609,13.28,943.0,0.434,82.2
2023-12-27T00:57:13,2420,42.8014,5.9826,0.319,0.042,4.006,155.0,151.0,152.0,11.8,1504.7,271.3,-0.8,0.9,2485.49,13.28,758.0,0.322,82.5
2023-12-27T01:03:13,2420,42.8014,5.9826,0.75,0.036,3.546,155.0,151.0,152.0,11.7,1504.7,271.5,-0.8,0.9,2485.199,13.28,766.0,0.751,87.3
2023-12-27T01:06:13,2420,42.8014,5.9826,0.487,0.042,3.837,155.0,151.0,152.0,11.8,1504.7,271.4,-0.8,0.9,2485.428,13.28,763.0,0.489,85.1
2023-12-27T01:09:13,2420,42.8014,5.9826,0.249,0.068,4.087,155.0,151.0,152.0,11.8,1504.7,271.3,-0.9,0.9,2485.472,13.28,783.0,0.258,74.7
2023-12-27T01:12:13,2420,42.8014,5.9826,0.616,0.033,3.695,155.0,151.0,152.0,11.8,1504.7,271.3,-0.8,0.9,2485.629,13.28,777.0,0.617,86.9
2023-12-27T01:15:13,2420,42.8014,5.9826,0.43,0.061,3.837,155.0,152.0,152.0,11.8,1504.7,271.6,-0.8,0.9,2485.639,13.28,773.0,0.434,81.9
2023-12-27T01:18:13,2420,42.8014,5.9826,0.29,0.088,4.04,155.0,151.0,152.0,11.8,1504.7,271.4,-0.8,0.9,2485.432,13.28,755.0,0.303,73.1
2023-12-27T01:21:14,2420,42.8014,5.9826,0.366,0.043,3.941,155.0,152.0,152.0,11.8,1504.7,271.4,-0.8,0.9,2485.444,13.28,774.0,0.369,83.3
2023-12-27T01:24:14,2420,42.8014,5.9826,0.354,0.292,3.552,155.0,151.0,152.0,11.8,1504.7,271.3,-0.8,0.9,2485.271,13.28,856.0,0.459,50.5
2023-12-27T01:27:14,2420,42.8014,5.9826,0.595,0.06,3.717,155.0,151.0,152.0,11.7,1504.7,271.3,-0.9,0.9,2485.412,13.28,771.0,0.598,84.2
2023-12-27T01:30:13,2420,42.8014,5.9826,0.597,0.051,3.663,155.0,151.0,152.0,11.8,1504.7,271.4,-0.8,0.9,2485.265,13.28,765.0,0.599,85.1
2023-12-27T01:33:13,2420,42.8014,5.9826,0.307,0.058,4.023,155.0,152.0,152.0,11.8,1504.7,271.3,-0.8,0.9,2485.402,13.28,765.0,0.312,79.3
2023-12-27T01:36:13,2420,42.8014,5.9826,0.676,0.05,3.626,155.0,152.0,152.0,11.8,1504.7,271.3,-0.8,0.9,2485.562,13.28,779.0,0.678,85.8
2023-12-27T01:39:13,2420,42.8014,5.9826,0.782,0.038,3.49,155.0,151.0,152.0,11.8,1504.7,271.4,-0.8,0.9,2485.36,13.28,775.0,0.783,87.2
2023-12-27T01:42:13,2420,42.8014,5.9826,0.211,-0.198,3.674,155.0,152.0,152.0,11.8,1504.7,271.3,-0.9,0.9,2485.149,13.28,769.0,0.289,133.2
2023-12-27T01:45:13,2420,42.8014,5.9826,0.394,0.05,3.948,155.0,151.0,152.0,11.8,1504.7,271.4,-0.8,0.9,2485.516,13.28,767.0,0.397,82.8
2023-12-27T01:48:14,2420,42.8014,5.9826,0.822,0.04,3.475,155.0,151.0,152.0,11.8,1504.7,271.5,-0.8,0.9,2485.635,13.28,776.0,0.823,87.2
2023-12-27T01:51:14,2420,42.8014,5.9826,0.754,0.038,3.595,155.0,151.0,152.0,11.8,1504.7,271.3,-0.8,0.9,2485.265,13.28,764.0,0.755,87.1
2023-12-27T01:54:13,2420,42.8014,5.9826,0.672,0.043,3.644,155.0,151.0,152.0,11.8,1504.7,271.6,-0.8,0.8,2485.348,13.28,766.0,0.673,86.3
2023-12-27T01:57:13,2420,42.8014,5.9826,0.43,0.05,3.915,155.0,151.0,152.0,11.8,1504.7,271.3,-0.9,0.9,2485.255,13.28,764.0,0.433,83.4
2023-12-27T02:03:13,2420,42.8014,5.9826,0.708,0.043,3.544,155.0,152.0,152.0,11.8,1504.7,271.4,-0.9,0.9,2485.265,13.28,761.0,0.709,86.5
2023-12-27T02:06:13,2420,42.8014,5.9826,0.819,0.044,3.532,155.0,152.0,152.0,11.7,1504.7,271.4,-0.8,0.9,2485.348,13.28,766.0,0.82,86.9
2023-12-27T02:09:13,2420,42.8014,5.9826,0.35,0.045,4.017,155.0,151.0,152.0,11.8,1504.7,271.3,-0.8,0.9,2485.486,13.28,786.0,0.353,82.7
2023-12-27T02:12:13,2420,42.8014,5.9826,0.551,0.059,3.801,155.0,152.0,152.0,11.8,1504.7,271.4,-0.9,0.9,2485.275,13.28,767.0,0.554,83.9
2023-12-27T02:15:13,2420,42.8014,5.9826,0.413,0.062,3.918,155.0,152.0,152.0,11.8,1504.7,271.3,-0.8,0.9,2485.55,13.28,762.0,0.418,81.5
2023-12-27T02:18:13,2420,42.8014,5.9826,0.351,0.063,3.97,155.0,151.0,152.0,11.8,1504.7,271.4,-0.8,0.9,2485.253,13.28,764.0,0.357,79.8
2023-12-27T02:21:13,2420,42.8014,5.9826,0.564,0.042,3.752,155.0,152.0,152.0,11.8,1504.7,271.5,-0.8,0.9,2485.35,13.28,774.0,0.565,85.7
2023-12-27T02:24:13,2420,42.8014,5.9826,0.311,0.3,3.619,155.0,152.0,152.0,11.8,1504.7,271.4,-0.8,0.8,2485.388,13.28,771.0,0.432,46.0
2023-12-27T02:27:13,2420,42.8014,5.9826,0.418,0.065,3.894,155.0,151.0,152.0,11.8,1504.7,271.3,-0.8,0.9,2484.99,13.28,786.0,0.423,81.2
2023-12-27T02:30:14,2420,42.8014,5.9826,0.297,0.551,3.194,155.0,151.0,152.0,11.7,1504.7,271.4,-0.8,0.9,2485.197,13.28,769.0,0.626,28.3
2023-12-27T02:33:13,2420,42.8014,5.9826,0.321,0.062,4.011,155.0,151.0,152.0,11.8,1504.7,271.5,-0.9,0.9,2485.528,13.28,777.0,0.327,79.1
2023-12-27T02:36:13,2420,42.8014,5.9826,0.456,0.065,3.884,155.0,152.0,152.0,11.7,1504.7,271.4,-0.8,0.9,2484.904,13.28,778.0,0.461,81.9
2023-12-27T02:39:13,2420,42.8014,5.9826,0.652,0.025,3.67,155.0,151.0,152.0,11.8,1504.7,271.4,-0.9,0.9,2485.763,13.28,774.0,0.652,87.8
2023-12-27T02:42:13,2420,42.8014,5.9826,0.783,0.045,3.532,155.0,152.0,152.0,11.8,1504.7,271.7,-0.8,0.9,2485.611,13.28,838.0,0.784,86.7
2023-12-27T02:45:13,2420,42.8014,5.9826,0.542,0.049,3.788,155.0,152.0,152.0,11.8,1504.7,271.4,-0.8,0.9,2485.34,13.28,774.0,0.544,84.8
2023-12-27T02:48:13,2420,42.8014,5.9826,0.71,0.058,3.648,155.0,151.0,152.0,11.8,1504.7,271.3,-0.8,0.9,2485.466,13.28,778.0,0.712,85.3
2023-12-27T02:51:13,2420,42.8014,5.9826,0.544,0.049,3.768,155.0,152.0,152.0,11.8,1504.7,271.4,-0.9,0.9,2485.701,13.28,772.0,0.546,84.9
2023-12-27T02:54:14,2420,42.8014,5.9826,0.541,-0.226,3.336,155.0,152.0,152.0,11.7,1504.7,271.5,-0.8,0.9,2485.151,13.28,765.0,0.586,112.7
2023-12-27T02:57:14,2420,42.8014,5.9826,0.628,0.05,3.702,155.0,151.0,152.0,11.8,1504.7,271.3,-0.8,0.9,2485.581,13.28,764.0,0.63,85.5
2023-12-27T03:03:13,2420,42.8014,5.9826,0.988,0.022,3.359,155.0,151.0,152.0,11.8,1504.7,271.2,-0.9,0.9,2485.358,13.28,768.0,0.988,88.7
2023-12-27T03:06:13,2420,42.8014,5.9826,1.132,0.054,3.22,155.0,151.0,152.0,11.8,1504.7,271.0,-0.8,0.9,2485.717,13.28,764.0,1.133,87.3
2023-12-27T03:09:14,2420,42.8014,5.9826,0.433,0.059,3.769,156.0,152.0,153.0,11.7,1504.7,271.4,-0.8,0.9,2485.026,13.28,765.0,0.437,82.2
2023-12-27T03:12:13,2420,42.8014,5.9826,0.131,0.059,4.066,155.0,152.0,153.0,11.7,1504.7,271.0,-0.8,0.9,2484.938,13.28,768.0,0.143,65.8
2023-12-27T03:15:13,2420,42.8014,5.9826,0.127,0.052,4.0,155.0,152.0,153.0,11.7,1504.7,271.7,-0.8,0.9,2485.342,13.28,753.0,0.137,67.7
2023-12-27T03:18:14,2420,42.8014,5.9826,1.031,0.017,3.286,155.0,151.0,152.0,11.8,1504.7,271.5,-0.8,0.9,2485.37,13.28,760.0,1.031,89.1
2023-12-27T03:21:14,2420,42.8014,5.9826,1.093,0.052,3.22,155.0,152.0,152.0,11.8,1504.7,271.4,-0.8,0.9,2485.725,13.28,767.0,1.094,87.3
2023-12-27T03:24:14,2420,42.8014,5.9826,0.973,0.011,3.367,155.0,151.0,152.0,11.8,1504.7,271.4,-0.9,0.8,2485.149,13.28,783.0,0.973,89.4
2023-12-27T03:27:13,2420,42.8014,5.9826,0.68,0.05,2.798,155.0,151.0,152.0,11.8,1504.7,271.3,-0.9,0.9,2485.305,13.28,771.0,0.682,85.8
2023-12-27T03:30:13,2420,42.8014,5.9826,0.786,-0.214,3.099,155.0,152.0,152.0,11.8,1504.7,271.5,-0.8,0.9,2485.177,13.28,758.0,0.815,105.2
2023-12-27T03:33:14,2420,42.8014,5.9826,1.006,0.032,3.311,155.0,151.0,152.0,11.8,1504.7,271.4,-0.8,0.9,2485.733,13.28,767.0,1.006,88.2
2023-12-27T03:36:13,2420,42.8014,5.9826,0.775,0.283,3.093,155.0,151.0,152.0,11.8,1504.7,271.5,-0.8,0.9,2485.422,13.28,774.0,0.825,69.9
2023-12-27T03:39:13,2420,42.8014,5.9826,0.767,-0.037,3.373,155.0,151.0,152.0,11.7,1504.7,271.4,-0.8,0.9,2485.502,13.28,760.0,0.768,92.8
2023-12-27T03:42:13,2420,42.8014,5.9826,0.532,0.066,3.756,155.0,151.0,152.0,11.8,1504.7,271.3,-0.9,0.9,2485.293,13.28,747.0,0.536,82.9
2023-12-27T03:45:13,2420,42.8014,5.9826,0.832,0.043,3.44,155.0,151.0,152.0,11.8,1504.7,271.5,-0.8,0.9,2485.211,13.28,780.0,0.833,87.0
2023-12-27T03:48:14,2420,42.8014,5.9826,0.837,0.241,3.003,155.0,151.0,152.0,11.8,1504.7,271.3,-0.9,0.9,2485.793,13.28,769.0,0.871,73.9
2023-12-27T03:51:14,2420,42.8014,5.9826,1.007,0.029,3.268,155.0,151.0,152.0,11.8,1504.7,271.3,-0.8,0.9,2485.713,13.28,772.0,1.007,88.4
2023-12-27T03:54:14,2420,42.8014,5.9826,0.879,0.044,3.414,155.0,151.0,152.0,11.8,1504.7,271.4,-0.8,0.9,2485.332,13.28,774.0,0.88,87.1
2023-12-27T03:57:13,2420,42.8014,5.9826,0.765,0.054,3.489,155.0,151.0,152.0,11.8,1504.7,271.6,-0.8,0.9,2485.51,13.28,777.0,0.767,86.0
2023-12-27T04:03:13,2420,42.8014,5.9826,1.018,0.033,3.26,155.0,151.0,152.0,11.8,1504.7,271.4,-0.9,0.9,2485.476,13.28,776.0,1.019,88.1
2023-12-27T04:06:13,2420,42.8014,5.9826,0.67,-0.228,3.166,155.0,151.0,152.0,11.8,1504.7,271.4,-0.9,0.9,2485.348,13.28,765.0,0.708,108.8
2023-12-27T04:09:13,2420,42.8014,5.9826,0.776,0.013,3.53,155.0,152.0,152.0,11.8,1504.7,271.4,-0.8,0.9,2485.293,13.28,764.0,0.776,89.0
2023-12-27T04:12:13,2420,42.8014,5.9826,0.744,0.029,3.594,155.0,151.0,152.0,11.8,1504.7,271.3,-0.9,0.9,2485.221,13.28,773.0,0.745,87.8
2023-12-27T04:15:13,2420,42.8014,5.9826,0.901,0.03,3.44,155.0,152.0,152.0,11.8,1504.7,271.4,-0.8,0.8,2485.301,13.28,752.0,0.901,88.1
2023-12-27T04:18:14,2420,42.8014,5.9826,1.059,0.019,3.251,155.0,151.0,152.0,11.8,1504.7,271.3,-0.8,0.8,2485.707,13.28,764.0,1.059,89.0
2023-12-27T04:21:14,2420,42.8014,5.9826,0.467,0.533,2.993,155.0,152.0,152.0,11.8,1504.7,271.4,-0.8,0.9,2485.424,13.28,769.0,0.709,41.2
2023-12-27T04:24:14,2420,42.8014,5.9826,0.759,0.029,3.534,155.0,152.0,152.0,11.8,1504.7,271.4,-0.8,0.9,2485.219,13.28,767.0,0.76,87.8
2023-12-27T04:27:14,2420,42.8014,5.9826,0.733,0.318,3.083,155.0,152.0,152.0,11.8,1504.7,271.4,-0.8,0.9,2485.522,13.28,773.0,0.799,66.5
2023-12-27T04:30:13,2420,42.8014,5.9826,0.863,0.031,3.451,155.0,151.0,152.0,11.8,1504.7,271.4,-0.8,0.9,2485.364,13.28,764.0,0.864,87.9
2023-12-27T04:33:13,2420,42.8014,5.9826,1.09,0.027,3.184,155.0,151.0,152.0,11.8,1504.7,271.5,-0.8,0.9,2485.099,13.28,761.0,1.09,88.6
2023-12-27T04:36:13,2420,42.8014,5.9826,0.833,0.04,3.492,155.0,152.0,152.0,11.8,1504.7,271.3,-0.9,0.9,2485.436,13.28,761.0,0.834,87.3
2023-12-27T04:39:13,2420,42.8014,5.9826,0.898,0.044,3.402,155.0,152.0,152.0,11.8,1504.7,271.5,-0.8,0.9,2485.577,13.28,780.0,0.899,87.2
2023-12-27T04:42:13,2420,42.8014,5.9826,0.864,0.034,3.424,155.0,152.0,152.0,11.8,1504.7,271.6,-0.8,0.9,2485.681,13.28,760.0,0.865,87.7
2023-12-27T04:45:14,2420,42.8014,5.9826,0.86,0.264,2.956,155.0,152.0,152.0,11.8,1504.7,271.4,-0.8,0.9,2485.273,13.28,759.0,0.9,72.9
2023-12-27T04:48:14,2420,42.8014,5.9826,0.831,0.045,3.379,155.0,151.0,152.0,11.7,1504.7,271.4,-0.8,0.9,2485.159,13.28,773.0,0.832,86.9
2023-12-27T04:51:14,2420,42.8014,5.9826,0.815,0.033,3.419,155.0,151.0,152.0,11.8,1504.7,271.4,-0.8,0.9,2485.534,13.28,769.0,0.816,87.7
2023-12-27T04:54:13,2420,42.8014,5.9826,0.958,0.014,3.259,155.0,151.0,152.0,11.8,1504.7,271.5,-0.8,0.8,2485.633,13.28,764.0,0.958,89.2
2023-12-27T04:57:13,2420,42.8014,5.9826,0.967,0.033,3.289,155.0,151.0,152.0,11.8,1504.7,271.5,-0.9,0.9,2485.117,13.28,774.0,0.968,88.0
2023-12-27T05:03:13,2420,42.8014,5.9826,0.977,0.047,3.292,155.0,151.0,152.0,11.8,1504.7,271.5,-0.8,0.9,2485.285,13.28,765.0,0.978,87.2
2023-12-27T05:06:13,2420,42.8014,5.9826,1.004,0.049,3.249,155.0,151.0,152.0,11.8,1504.7,271.3,-0.9,0.9,2484.956,13.28,772.0,1.005,87.2
2023-12-27T05:09:13,2420,42.8014,5.9826,0.926,0.033,3.398,155.0,151.0,152.0,11.8,1504.7,271.5,-0.8,0.9,2485.587,13.28,765.0,0.927,88.0
2023-12-27T05:12:13,2420,42.8014,5.9826,0.897,-0.211,2.987,155.0,152.0,152.0,11.8,1504.7,271.4,-0.8,0.8,2485.334,13.28,786.0,0.921,103.2
2023-12-27T05:15:13,2420,42.8014,5.9826,0.927,0.02,3.283,155.0,151.0,152.0,11.8,1504.7,271.4,-0.9,0.9,2485.538,13.28,777.0,0.927,88.8
2023-12-27T05:18:13,2420,42.8014,5.9826,0.945,0.036,3.308,155.0,152.0,152.0,11.8,1504.7,271.3,-0.8,0.9,2485.277,13.28,774.0,0.946,87.8
2023-12-27T05:21:13,2420,42.8014,5.9826,1.008,0.01,3.251,155.0,152.0,152.0,11.8,1504.7,271.3,-0.8,0.9,2485.84,13.28,765.0,1.008,89.4
2023-12-27T05:24:13,2420,42.8014,5.9826,1.049,0.05,3.246,155.0,152.0,152.0,11.8,1504.7,271.4,-0.8,0.9,2485.428,13.28,754.0,1.05,87.3
2023-12-27T05:27:13,2420,42.8014,5.9826,0.849,-0.208,2.966,155.0,151.0,152.0,11.8,1504.7,271.3,-0.8,0.9,2485.295,13.28,764.0,0.874,103.8
2023-12-27T05:30:14,2420,42.8014,5.9826,0.985,0.04,3.243,155.0,151.0,152.0,11.8,1504.7,271.5,-0.8,0.9,2485.781,13.28,760.0,0.986,87.7
2023-12-27T05:33:13,2420,42.8014,5.9826,0.881,0.273,2.985,155.0,152.0,152.0,11.8,1504.7,271.5,-0.8,0.8,2485.362,13.28,755.0,0.922,72.8
2023-12-27T05:36:13,2420,42.8014,5.9826,0.917,0.029,3.355,155.0,151.0,152.0,11.8,1504.7,271.3,-0.8,0.9,2485.745,13.28,776.0,0.917,88.2
2023-12-27T05:39:13,2420,42.8014,5.9826,1.028,0.023,3.317,155.0,151.0,152.0,11.8,1504.7,271.4,-0.8,0.9,2485.452,13.28,768.0,1.028,88.7
2023-12-27T05:42:13,2420,42.8014,5.9826,0.945,0.03,3.382,155.0,151.0,152.0,11.8,1504.7,271.5,-0.8,0.9,2485.488,13.28,778.0,0.945,88.2
2023-12-27T05:45:13,2420,42.8014,5.9826,0.915,-0.212,2.998,155.0,152.0,152.0,11.8,1504.7,271.6,-0.8,0.9,2485.47,13.28,762.0,0.939,103.0
2023-12-27T05:48:13,2420,42.8014,5.9826,0.954,0.027,3.386,155.0,151.0,152.0,11.8,1504.7,271.4,-0.8,0.9,2485.404,13.28,771.0,0.954,88.4
2023-12-27T05:51:14,2420,42.8014,5.9826,0.98,0.034,3.29,155.0,151.0,152.0,11.8,1504.7,271.3,-0.8,0.9,2485.552,13.28,790.0,0.981,88.0
2023-12-27T05:54:14,2420,42.8014,5.9826,1.024,0.006,3.29,155.0,152.0,152.0,11.8,1504.7,271.5,-0.8,0.9,2485.645,13.28,808.0,1.024,89.7
2023-12-27T05:57:14,2420,42.8014,5.9826,1.061,0.037,3.245,155.0,152.0,152.0,11.8,1504.7,271.4,-0.8,0.9,2485.434,13.28,767.0,1.062,88.0
2023-12-27T06:03:13,2420,42.8014,5.9826,1.077,0.022,3.231,155.0,151.0,152.0,11.8,1504.7,271.3,-0.8,0.9,2485.279,13.28,757.0,1.077,88.8
2023-12-27T06:06:13,2420,42.8014,5.9826,1.074,0.037,3.2,155.0,151.0,152.0,11.7,1504.7,271.4,-0.8,0.9,2485.673,13.28,778.0,1.075,88.0
2023-12-27T06:09:13,2420,42.8014,5.9826,1.066,0.035,3.221,155.0,151.0,152.0,11.8,1504.7,271.3,-0.8,0.9,2485.478,13.28,776.0,1.066,88.1
2023-12-27T06:12:13,2420,42.8014,5.9826,0.941,0.041,3.346,156.0,151.0,152.0,11.8,1504.7,271.5,-0.8,0.9,2485.512,13.28,762.0,0.942,87.5
2023-12-27T06:15:13,2420,42.8014,5.9826,0.973,0.013,3.314,155.0,151.0,152.0,11.8,1504.7,271.4,-0.8,0.9,2485.247,13.28,762.0,0.973,89.2
2023-12-27T06:18:13,2420,42.8014,5.9826,0.734,0.267,3.127,155.0,151.0,152.0,11.8,1504.7,271.3,-0.8,0.9,2485.705,13.28,761.0,0.781,70.0
2023-12-27T06:21:14,2420,42.8014,5.9826,0.865,0.038,3.422,155.0,151.0,152.0,11.8,1504.7,271.4,-0.8,0.9,2485.659,13.28,787.0,0.866,87.5
2023-12-27T06:24:14,2420,42.8014,5.9826,0.989,0.04,3.299,155.0,152.0,152.0,11.8,1504.7,271.5,-0.9,0.9,2485.354,13.28,772.0,0.99,87.7
2023-12-27T06:27:14,2420,42.8014,5.9826,0.921,-0.239,2.914,155.0,151.0,152.0,11.8,1504.7,271.4,-0.8,0.9,2485.633,13.28,773.0,0.952,104.5
2023-12-27T06:30:13,2420,42.8014,5.9826,0.874,-0.195,2.943,155.0,151.0,152.0,11.8,1504.7,271.3,-0.8,0.9,2485.757,13.28,760.0,0.895,102.6
2023-12-27T06:33:13,2420,42.8014,5.9826,0.972,0.035,3.293,155.0,152.0,152.0,11.8,1504.7,271.4,-0.8,0.9,2485.783,13.28,773.0,0.973,87.9
2023-12-27T06:36:13,2420,42.8014,5.9826,1.032,0.035,3.291,155.0,152.0,152.0,11.8,1504.7,271.4,-0.8,0.9,2485.454,13.28,752.0,1.032,88.1
2023-12-27T06:39:13,2420,42.8014,5.9826,1.076,0.021,3.245,155.0,151.0,152.0,11.8,1504.7,271.5,-0.8,0.9,2485.432,13.28,777.0,1.076,88.9
2023-12-27T06:42:14,2420,42.8014,5.9826,1.026,0.018,3.262,155.0,151.0,152.0,11.8,1504.7,271.3,-0.8,0.9,2485.89,13.28,765.0,1.026,89.0
2023-12-27T06:45:14,2420,42.8014,5.9826,0.952,0.03,3.325,155.0,151.0,152.0,11.8,1504.7,271.3,-0.8,0.9,2485.281,13.28,762.0,0.952,88.2
2023-12-27T06:48:13,2420,42.8014,5.9826,0.945,0.034,3.366,155.0,152.0,152.0,11.8,1504.7,271.4,-0.9,0.9,2485.301,13.28,765.0,0.946,87.9
2023-12-27T06:51:13,2420,42.8014,5.9826,1.021,-0.007,3.307,155.0,151.0,152.0,11.7,1504.7,271.5,-0.8,0.9,2485.659,13.28,765.0,1.021,90.4
2023-12-27T06:54:13,2420,42.8014,5.9826,1.011,0.024,3.226,155.0,151.0,152.0,11.8,1504.7,271.5,-0.8,0.9,2485.591,13.28,755.0,1.011,88.6
2023-12-27T06:57:13,2420,42.8014,5.9826,1.031,0.023,3.195,155.0,152.0,152.0,11.8,1504.7,271.4,-0.8,0.9,2485.53,13.28,758.0,1.031,88.7
2023-12-27T07:03:13,2420,42.8014,5.9826,0.928,0.029,3.359,155.0,151.0,152.0,11.8,1504.7,271.4,-0.8,0.9,2485.866,13.28,777.0,0.928,88.2
2023-12-27T07:06:13,2420,42.8014,5.9826,1.007,0.041,3.257,155.0,151.0,152.0,11.8,1504.7,271.5,-0.8,0.9,2485.97,13.28,773.0,1.008,87.7
2023-12-27T07:09:13,2420,42.8014,5.9826,1.02,0.037,3.268,155.0,151.0,152.0,11.8,1504.7,271.4,-0.8,0.9,2485.659,13.28,761.0,1.021,87.9
2023-12-27T07:12:13,2420,42.8014,5.9826,0.947,0.022,3.38,155.0,151.0,152.0,11.8,1504.7,271.5,-0.8,0.9,2485.56,13.28,771.0,0.947,88.7
2023-12-27T07:15:13,2420,42.8014,5.9826,0.786,0.528,2.644,155.0,151.0,152.0,11.8,1504.7,271.4,-0.8,0.9,2485.512,13.28,768.0,0.947,56.1
2023-12-27T07:18:13,2420,42.8014,5.9826,0.831,-0.22,3.012,155.0,151.0,152.0,11.8,1504.7,271.3,-0.9,0.9,2485.374,13.28,771.0,0.86,104.8
2023-12-27T07:21:13,2420,42.8014,5.9826,1.14,0.033,3.163,155.0,151.0,152.0,11.8,1504.7,271.4,-0.8,0.8,2485.462,13.28,758.0,1.14,88.3
2023-12-27T07:24:14,2420,42.8014,5.9826,0.816,-0.204,3.033,155.0,151.0,152.0,11.8,1504.7,271.4,-0.8,0.9,2485.868,13.28,831.0,0.841,104.0
2023-12-27T07:27:14,2420,42.8014,5.9826,0.959,0.034,3.283,155.0,151.0,152.0,11.8,1504.7,271.5,-0.9,0.9,2485.364,13.28,762.0,0.96,88.0
2023-12-27T07:30:14,2420,42.8014,5.9826,1.132,0.024,3.202,155.0,151.0,152.0,11.8,1504.7,271.4,-0.8,0.9,2485.572,13.28,761.0,1.132,88.8
2023-12-27T07:33:13,2420,42.8014,5.9826,1.267,0.022,3.079,155.0,151.0,152.0,11.8,1504.7,271.3,-0.8,0.9,2485.318,13.28,758.0,1.267,89.0
2023-12-27T07:36:13,2420,42.8014,5.9826,1.067,0.03,3.178,155.0,151.0,152.0,11.7,1504.7,271.4,-0.8,0.9,2485.54,13.28,766.0,1.067,88.4
2023-12-27T07:39:13,2420,42.8014,5.9826,0.824,-0.204,3.026,155.0,151.0,152.0,11.8,1504.7,271.3,-0.8,0.9,2485.655,13.29,759.0,0.849,103.9
2023-12-27T07:42:13,2420,42.8014,5.9826,0.984,0.046,3.268,155.0,152.0,152.0,11.8,1504.7,271.3,-0.9,0.8,2485.512,13.29,762.0,0.985,87.3
2023-12-27T07:45:14,2420,42.8014,5.9826,1.123,0.033,3.184,155.0,151.0,152.0,11.8,1504.7,271.5,-0.8,0.9,2485.579,13.29,762.0,1.123,88.3
2023-12-27T07:48:14,2420,42.8014,5.9826,0.931,0.019,3.351,155.0,151.0,152.0,11.8,1504.7,271.3,-0.8,0.9,2485.508,13.29,763.0,0.931,88.8
2023-12-27T07:51:14,2420,42.8014,5.9826,0.82,0.024,3.503,155.0,151.0,152.0,11.8,1504.7,271.3,-0.8,0.9,2485.779,13.29,772.0,0.82,88.3
2023-12-27T07:54:14,2420,42.8014,5.9826,1.002,0.043,3.258,155.0,152.0,152.0,11.8,1504.7,271.4,-0.8,0.9,2485.623,13.29,763.0,1.003,87.5
2023-12-27T07:57:13,2420,42.8014,5.9826,0.91,0.029,3.356,155.0,151.0,152.0,11.8,1504.7,271.4,-0.8,0.9,2485.918,13.29,773.0,0.91,88.2
2023-12-27T08:03:13,2420,42.8014,5.9826,0.866,0.273,2.966,155.0,151.0,152.0,11.8,1504.7,271.6,-0.8,0.9,2485.516,13.29,772.0,0.908,72.5
2023-12-27T08:06:13,2420,42.8014,5.9826,0.889,-0.21,3.004,155.0,151.0,152.0,11.8,1504.7,271.3,-0.9,0.9,2485.619,13.29,765.0,0.913,103.3
2023-12-27T08:09:13,2420,42.8014,5.9826,0.802,0.269,3.07,155.0,151.0,152.0,11.8,1504.7,271.4,-0.8,0.9,2485.336,13.29,768.0,0.846,71.5
2023-12-27T08:12:13,2420,42.8014,5.9826,1.096,0.027,3.226,155.0,151.0,152.0,11.8,1504.7,271.3,-0.8,0.9,2485.697,13.29,772.0,1.096,88.6
2023-12-27T08:15:14,2420,42.8014,5.9826,1.14,0.025,3.155,155.0,152.0,152.0,11.8,1504.7,271.4,-0.8,0.9,2485.289,13.3,762.0,1.14,88.7
2023-12-27T08:18:14,2420,42.8014,5.9826,1.045,0.039,3.283,155.0,151.0,152.0,11.8,1504.7,271.4,-0.8,0.9,2485.534,13.3,764.0,1.046,87.9
2023-12-27T08:21:13,2420,42.8014,5.9826,0.877,0.025,3.417,155.0,152.0,152.0,11.8,1504.7,271.4,-0.8,0.9,2485.645,13.3,758.0,0.877,88.4
2023-12-27T08:24:13,2420,42.8014,5.9826,0.757,0.29,3.148,155.0,151.0,152.0,11.8,1504.8,271.4,-0.8,0.9,2485.689,13.31,995.0,0.811,69.0
2023-12-27T08:27:13,2420,42.8014,5.9826,0.925,0.035,3.292,155.0,151.0,152.0,11.8,1504.8,271.4,-0.8,0.9,2485.394,13.31,768.0,0.926,87.8
2023-12-27T08:30:13,2420,42.8014,5.9826,1.043,0.022,3.25,155.0,151.0,152.0,11.8,1504.8,271.4,-0.8,0.9,2485.613,13.31,758.0,1.043,88.8
2023-12-27T08:33:13,2420,42.8014,5.9826,0.97,0.048,3.37,155.0,151.0,152.0,11.8,1504.8,271.3,-0.8,0.9,2485.378,13.32,754.0,0.971,87.2
2023-12-27T08:36:13,2420,42.8014,5.9826,0.924,0.047,3.328,155.0,151.0,152.0,11.8,1504.8,271.4,-0.8,0.9,2485.35,13.32,747.0,0.925,87.1
2023-12-27T08:39:13,2420,42.8014,5.9826,0.967,0.027,3.299,155.0,151.0,152.0,11.8,1504.8,271.3,-0.8,0.9,2485.84,13.31,759.0,0.967,88.4
2023-12-27T08:42:13,2420,42.8014,5.9826,0.723,0.052,3.642,155.0,151.0,152.0,11.8,1504.8,271.4,-0.8,0.9,2485.623,13.31,763.0,0.725,85.9
2023-12-27T08:45:13,2420,42.8014,5.9826,0.907,0.049,3.443,155.0,151.0,152.0,11.8,1504.8,271.4,-0.8,0.9,2485.388,13.31,762.0,0.908,86.9
2023-12-27T08:48:13,2420,42.8014,5.9826,0.789,0.044,3.527,155.0,151.0,152.0,11.8,1504.8,271.3,-0.8,0.9,2485.679,13.31,775.0,0.79,86.8
2023-12-27T08:51:14,2420,42.8014,5.9826,0.912,0.025,3.405,155.0,151.0,152.0,11.8,1504.8,271.3,-0.9,0.9,2485.633,13.31,776.0,0.912,88.4
2023-12-27T08:54:14,2420,42.8014,5.9826,0.907,0.035,3.442,155.0,151.0,152.0,11.8,1504.8,271.4,-0.8,0.9,2485.269,13.32,763.0,0.908,87.8
2023-12-27T08:57:14,2420,42.8014,5.9826,1.1,0.021,3.281,155.0,151.0,152.0,11.8,1504.8,271.4,-0.8,0.9,2485.659,13.33,766.0,1.1,88.9
2023-12-27T09:03:13,2420,42.8014,5.9826,1.124,0.017,3.204,155.0,152.0,152.0,11.8,1504.8,271.3,-0.8,0.9,2485.689,13.33,755.0,1.124,89.1
2023-12-27T09:06:13,2420,42.8014,5.9826,0.981,0.021,3.295,155.0,151.0,152.0,11.7,1504.8,271.4,-0.8,0.8,2485.145,13.33,762.0,0.981,88.8